| time (UTC) | temp F | wind direction | speed MPH | gust MPH | rain 1hr in | rain 24hr in | rain mn in | humidity % | barometer mb |
| 20260504040526 | 48 | 248 | 0.0 | 1.0 | 0.00 | 0.00 | 0.00 | 58 | 1013.8 |
| 20260504040045 | 48 | 248 | 0.0 | 3.0 | 0.00 | 0.00 | 0.00 | 57 | 1013.8 |
| 20260504035524 | 48 | 0 | 1.0 | 3.0 | 0.00 | 0.00 | 0.00 | 57 | 1013.8 |
| 20260504035024 | 48 | 236 | 0.0 | 2.0 | 0.00 | 0.00 | 0.00 | 57 | 1013.7 |
| 20260504034546 | 48 | 0 | 0.0 | 2.0 | 0.00 | 0.00 | 0.00 | 56 | 1013.7 |
| 20260504034026 | 48 | 241 | 0.0 | 2.0 | 0.00 | 0.00 | 0.00 | 56 | 1013.8 |
| 20260504033525 | 48 | 0 | 0.0 | 2.0 | 0.00 | 0.00 | 0.00 | 55 | 1013.7 |
| 20260504033039 | 48 | 249 | 1.0 | 2.0 | 0.00 | 0.00 | 0.00 | 55 | 1013.7 |
| 20260504032527 | 48 | 227 | 0.0 | 2.0 | 0.00 | 0.00 | 0.00 | 54 | 1013.7 |
| 20260504032027 | 48 | 0 | 0.0 | 2.0 | 0.00 | 0.00 | 0.00 | 54 | 1013.6 |
| 20260504031547 | 48 | 226 | 0.0 | 1.0 | 0.00 | 0.00 | 0.00 | 54 | 1013.6 |
| 20260504031025 | 48 | 220 | 0.0 | 3.0 | 0.00 | 0.00 | 0.00 | 54 | 1013.6 |
| 20260504030525 | 48 | 221 | 0.0 | 3.0 | 0.00 | 0.00 | 0.00 | 54 | 1013.5 |
| 20260504025525 | 48 | 0 | 0.0 | 1.0 | 0.00 | 0.00 | 0.00 | 53 | 1013.5 |
| 20260504025025 | 48 | 0 | 0.0 | 2.0 | 0.00 | 0.00 | 0.00 | 52 | 1013.6 |
| 20260504024542 | 48 | 0 | 0.0 | 2.0 | 0.00 | 0.00 | 0.00 | 53 | 1013.5 |
| 20260504024025 | 49 | 211 | 0.0 | 2.0 | 0.00 | 0.00 | 0.00 | 52 | 1013.6 |
| 20260504023525 | 49 | 0 | 0.0 | 3.0 | 0.00 | 0.00 | 0.00 | 52 | 1013.6 |
| 20260504023042 | 49 | 0 | 0.0 | 3.0 | 0.00 | 0.00 | 0.00 | 52 | 1013.6 |
| 20260504022525 | 49 | 0 | 0.0 | 3.0 | 0.00 | 0.00 | 0.00 | 52 | 1013.6 |
| 20260504022024 | 49 | 234 | 0.0 | 1.0 | 0.00 | 0.00 | 0.00 | 52 | 1013.6 |
| 20260504021544 | 49 | 0 | 0.0 | 1.0 | 0.00 | 0.00 | 0.00 | 52 | 1013.6 |
| 20260504021026 | 48 | 0 | 0.0 | 1.0 | 0.00 | 0.00 | 0.00 | 53 | 1013.6 |
| 20260504020527 | 49 | 0 | 0.0 | 1.0 | 0.00 | 0.00 | 0.00 | 52 | 1013.6 |
| 20260504020045 | 49 | 0 | 0.0 | 1.0 | 0.00 | 0.00 | 0.00 | 51 | 1013.6 |
| 20260504015527 | 49 | 0 | 0.0 | 1.0 | 0.00 | 0.00 | 0.00 | 51 | 1013.5 |
| 20260504015027 | 49 | 0 | 0.0 | 1.0 | 0.00 | 0.00 | 0.00 | 52 | 1013.5 |
| 20260504014545 | 49 | 0 | 0.0 | 1.0 | 0.00 | 0.00 | 0.00 | 51 | 1013.5 |
| 20260504014024 | 49 | 0 | 0.0 | 2.0 | 0.00 | 0.00 | 0.00 | 49 | 1013.4 |
| 20260504013526 | 49 | 0 | 0.0 | 2.0 | 0.00 | 0.00 | 0.00 | 49 | 1013.3 |
| 20260504013050 | 49 | 202 | 0.0 | 0.0 | 0.00 | 0.00 | 0.00 | 51 | 1013.3 |
| 20260504012527 | 49 | 0 | 0.0 | 0.0 | 0.00 | 0.00 | 0.00 | 51 | 1013.2 |
| 20260504012024 | 49 | 0 | 0.0 | 0.0 | 0.00 | 0.00 | 0.00 | 52 | 1013.2 |
| 20260504011540 | 50 | 0 | 0.0 | 0.0 | 0.00 | 0.00 | 0.00 | 51 | 1013.1 |
| 20260504011030 | 50 | 0 | 0.0 | 0.0 | 0.00 | 0.00 | 0.00 | 50 | 1013.0 |
| 20260504010524 | 50 | 0 | 0.0 | 0.0 | 0.00 | 0.00 | 0.00 | 48 | 1013.0 |
| 20260504010050 | 51 | 0 | 0.0 | 0.0 | 0.00 | 0.00 | 0.00 | 48 | 1012.9 |
| 20260504005525 | 51 | 0 | 0.0 | 0.0 | 0.00 | 0.00 | 0.00 | 47 | 1012.7 |
| 20260504005027 | 51 | 0 | 0.0 | 0.0 | 0.00 | 0.00 | 0.00 | 46 | 1012.7 |
| 20260504004543 | 52 | 0 | 0.0 | 0.0 | 0.00 | 0.00 | 0.00 | 45 | 1012.7 |
| 20260504004025 | 52 | 0 | 0.0 | 1.0 | 0.00 | 0.00 | 0.00 | 43 | 1012.6 |
| 20260504003526 | 53 | 0 | 0.0 | 1.0 | 0.00 | 0.00 | 0.00 | 42 | 1012.4 |
| 20260504003045 | 54 | 248 | 0.0 | 1.0 | 0.00 | 0.00 | 0.00 | 41 | 1012.4 |
| 20260504002528 | 54 | 0 | 0.0 | 1.0 | 0.00 | 0.00 | 0.00 | 39 | 1012.2 |
| 20260504002032 | 55 | 248 | 0.0 | 1.0 | 0.00 | 0.00 | 0.00 | 38 | 1012.2 |
| 20260504001545 | 55 | 273 | 0.0 | 1.0 | 0.00 | 0.00 | 0.00 | 36 | 1012.2 |
| 20260504001029 | 56 | 275 | 0.0 | 2.0 | 0.00 | 0.00 | 0.00 | 36 | 1012.1 |
| 20260504000529 | 56 | 267 | 0.0 | 2.0 | 0.00 | 0.00 | 0.00 | 35 | 1012.1 |
| 20260504000046 | 56 | 288 | 0.0 | 4.0 | 0.00 | 0.00 | 0.00 | 35 | 1012.1 |
| 20260503235529 | 57 | 281 | 0.0 | 4.0 | 0.00 | 0.00 | 0.00 | 34 | 1012.1 |
| 20260503235032 | 57 | 302 | 1.0 | 3.0 | 0.00 | 0.00 | 0.00 | 34 | 1012.0 |
| 20260503234541 | 57 | 280 | 1.0 | 3.0 | 0.00 | 0.00 | 0.00 | 34 | 1012.1 |
| 20260503234029 | 58 | 275 | 1.0 | 5.0 | 0.00 | 0.00 | 0.00 | 33 | 1012.0 |
| 20260503233528 | 58 | 293 | 1.0 | 10.0 | 0.00 | 0.00 | 0.00 | 32 | 1012.0 |
| 20260503233050 | 58 | 280 | 3.0 | 10.0 | 0.00 | 0.00 | 0.00 | 32 | 1011.9 |
| 20260503232528 | 58 | 294 | 2.0 | 8.0 | 0.00 | 0.00 | 0.00 | 32 | 1011.9 |
| 20260503232028 | 58 | 276 | 2.0 | 6.0 | 0.00 | 0.00 | 0.00 | 31 | 1011.8 |
| 20260503231547 | 59 | 297 | 1.0 | 6.0 | 0.00 | 0.00 | 0.00 | 32 | 1011.9 |
| 20260503231031 | 59 | 335 | 1.0 | 10.0 | 0.00 | 0.00 | 0.00 | 31 | 1011.7 |
| 20260503230529 | 59 | 327 | 1.0 | 10.0 | 0.00 | 0.00 | 0.00 | 31 | 1011.8 |
| 20260503230058 | 59 | 328 | 2.0 | 9.0 | 0.00 | 0.00 | 0.00 | 30 | 1011.7 |
| 20260503225528 | 59 | 301 | 3.0 | 10.0 | 0.00 | 0.00 | 0.00 | 30 | 1011.6 |
| 20260503225029 | 59 | 301 | 3.0 | 10.0 | 0.00 | 0.00 | 0.00 | 30 | 1011.5 |
| 20260503224542 | 59 | 271 | 3.0 | 10.0 | 0.00 | 0.00 | 0.00 | 30 | 1011.6 |
| 20260503224028 | 59 | 279 | 4.0 | 10.0 | 0.00 | 0.00 | 0.00 | 29 | 1011.7 |
| 20260503223533 | 59 | 285 | 3.0 | 11.0 | 0.00 | 0.00 | 0.00 | 29 | 1011.6 |
| 20260503223055 | 59 | 292 | 3.0 | 11.0 | 0.00 | 0.00 | 0.00 | 29 | 1011.7 |
| 20260503222528 | 59 | 265 | 3.0 | 5.0 | 0.00 | 0.00 | 0.00 | 30 | 1011.6 |
| 20260503222028 | 59 | 297 | 2.0 | 8.0 | 0.00 | 0.00 | 0.00 | 30 | 1011.6 |
| 20260503221547 | 59 | 328 | 1.0 | 8.0 | 0.00 | 0.00 | 0.00 | 30 | 1011.6 |
| 20260503221033 | 59 | 317 | 3.0 | 10.0 | 0.00 | 0.00 | 0.00 | 30 | 1011.6 |
| 20260503220529 | 59 | 292 | 2.0 | 10.0 | 0.00 | 0.00 | 0.00 | 30 | 1011.6 |
| 20260503220050 | 59 | 290 | 4.0 | 9.0 | 0.00 | 0.00 | 0.00 | 30 | 1011.6 |
| 20260503215529 | 59 | 283 | 4.0 | 11.0 | 0.00 | 0.00 | 0.00 | 31 | 1011.6 |
| 20260503215029 | 59 | 47 | 4.0 | 13.0 | 0.00 | 0.00 | 0.00 | 30 | 1011.6 |
| 20260503214554 | 59 | 52 | 4.0 | 13.0 | 0.00 | 0.00 | 0.00 | 30 | 1011.6 |
| 20260503214029 | 59 | 293 | 4.0 | 18.0 | 0.00 | 0.00 | 0.00 | 30 | 1011.6 |
| 20260503213528 | 58 | 317 | 3.0 | 19.0 | 0.00 | 0.00 | 0.00 | 31 | 1011.7 |
| 20260503213046 | 58 | 289 | 7.0 | 19.0 | 0.00 | 0.00 | 0.00 | 30 | 1011.7 |
| 20260503212524 | 58 | 276 | 4.0 | 18.0 | 0.00 | 0.00 | 0.00 | 30 | 1011.6 |
| 20260503212027 | 58 | 277 | 5.0 | 18.0 | 0.00 | 0.00 | 0.00 | 31 | 1011.7 |
| 20260503211542 | 58 | 303 | 4.0 | 23.0 | 0.00 | 0.00 | 0.00 | 31 | 1011.6 |
| 20260503211024 | 58 | 266 | 7.0 | 23.0 | 0.00 | 0.00 | 0.00 | 31 | 1011.7 |
| 20260503210524 | 58 | 318 | 6.0 | 15.0 | 0.00 | 0.00 | 0.00 | 29 | 1011.8 |
| 20260503210039 | 58 | 274 | 4.0 | 15.0 | 0.00 | 0.00 | 0.00 | 30 | 1011.7 |
| 20260503205524 | 58 | 274 | 3.0 | 17.0 | 0.00 | 0.00 | 0.00 | 30 | 1011.8 |
| 20260503205028 | 59 | 280 | 3.0 | 17.0 | 0.00 | 0.00 | 0.00 | 31 | 1011.9 |
| 20260503204546 | 58 | 298 | 6.0 | 17.0 | 0.00 | 0.00 | 0.00 | 30 | 1011.7 |
| 20260503204024 | 58 | 42 | 6.0 | 14.0 | 0.00 | 0.00 | 0.00 | 30 | 1011.7 |
| 20260503203526 | 58 | 284 | 7.0 | 14.0 | 0.00 | 0.00 | 0.00 | 31 | 1011.9 |
| 20260503203046 | 58 | 285 | 4.0 | 12.0 | 0.00 | 0.00 | 0.00 | 30 | 1011.8 |
| 20260503202528 | 58 | 310 | 5.0 | 12.0 | 0.00 | 0.00 | 0.00 | 31 | 1011.9 |
| 20260503202024 | 59 | 296 | 4.0 | 16.0 | 0.00 | 0.00 | 0.00 | 31 | 1011.8 |
| 20260503201548 | 58 | 290 | 5.0 | 16.0 | 0.00 | 0.00 | 0.00 | 30 | 1011.8 |
| 20260503201025 | 58 | 305 | 3.0 | 14.0 | 0.00 | 0.00 | 0.00 | 30 | 1011.9 |
| 20260503200524 | 57 | 309 | 7.0 | 14.0 | 0.00 | 0.00 | 0.00 | 30 | 1012.0 |
| 20260503200044 | 57 | 259 | 6.0 | 14.0 | 0.00 | 0.00 | 0.00 | 30 | 1011.9 |
| 20260503195523 | 57 | 294 | 2.0 | 18.0 | 0.00 | 0.00 | 0.00 | 31 | 1012.0 |
| 20260503195024 | 57 | 289 | 3.0 | 18.0 | 0.00 | 0.00 | 0.00 | 31 | 1011.9 |
| 20260503194557 | 58 | 284 | 6.0 | 18.0 | 0.00 | 0.00 | 0.00 | 30 | 1012.0 |
| 20260503194025 | 58 | 293 | 4.0 | 13.0 | 0.00 | 0.00 | 0.00 | 30 | 1012.1 |
| 20260503193527 | 58 | 302 | 5.0 | 12.0 | 0.00 | 0.00 | 0.00 | 30 | 1012.0 |
| 20260503193044 | 57 | 287 | 4.0 | 12.0 | 0.00 | 0.00 | 0.00 | 30 | 1012.0 |
| 20260503192526 | 57 | 286 | 5.0 | 11.0 | 0.00 | 0.00 | 0.00 | 30 | 1012.0 |
| 20260503192027 | 57 | 294 | 4.0 | 10.0 | 0.00 | 0.00 | 0.00 | 30 | 1012.2 |
| 20260503191547 | 57 | 281 | 5.0 | 13.0 | 0.00 | 0.00 | 0.00 | 29 | 1012.3 |
| 20260503191029 | 58 | 296 | 6.0 | 13.0 | 0.00 | 0.00 | 0.00 | 31 | 1012.3 |
| 20260503190528 | 57 | 277 | 4.0 | 11.0 | 0.00 | 0.00 | 0.00 | 32 | 1012.4 |
| 20260503190046 | 57 | 296 | 4.0 | 12.0 | 0.00 | 0.00 | 0.00 | 31 | 1012.4 |
| 20260503185524 | 57 | 327 | 4.0 | 12.0 | 0.00 | 0.00 | 0.00 | 31 | 1012.6 |
| 20260503185027 | 57 | 284 | 4.0 | 13.0 | 0.00 | 0.00 | 0.00 | 30 | 1012.5 |
| 20260503184543 | 57 | 263 | 5.0 | 16.0 | 0.00 | 0.00 | 0.00 | 30 | 1012.4 |
| 20260503184029 | 56 | 327 | 4.0 | 16.0 | 0.00 | 0.00 | 0.00 | 31 | 1012.6 |
| 20260503183527 | 56 | 38 | 5.0 | 15.0 | 0.00 | 0.00 | 0.00 | 30 | 1012.7 |
| 20260503183054 | 56 | 305 | 4.0 | 14.0 | 0.00 | 0.00 | 0.00 | 31 | 1012.8 |
| 20260503182524 | 56 | 294 | 6.0 | 12.0 | 0.00 | 0.00 | 0.00 | 31 | 1012.9 |
| 20260503182026 | 56 | 281 | 3.0 | 12.0 | 0.00 | 0.00 | 0.00 | 33 | 1012.8 |
| 20260503181554 | 55 | 292 | 4.0 | 14.0 | 0.00 | 0.00 | 0.00 | 31 | 1012.8 |
| 20260503181027 | 56 | 308 | 5.0 | 14.0 | 0.00 | 0.00 | 0.00 | 33 | 1012.8 |
| 20260503180530 | 55 | 288 | 4.0 | 10.0 | 0.00 | 0.00 | 0.00 | 36 | 1012.7 |
| 20260503180050 | 56 | 290 | 4.0 | 14.0 | 0.00 | 0.00 | 0.00 | 34 | 1012.9 |
| 20260503175529 | 55 | 285 | 3.0 | 15.0 | 0.00 | 0.00 | 0.00 | 35 | 1012.9 |
| 20260503175027 | 55 | 268 | 7.0 | 15.0 | 0.00 | 0.00 | 0.00 | 35 | 1013.0 |
| 20260503174552 | 54 | 288 | 3.0 | 11.0 | 0.00 | 0.00 | 0.00 | 35 | 1012.9 |
| 20260503174030 | 55 | 285 | 5.0 | 11.0 | 0.00 | 0.00 | 0.00 | 36 | 1012.9 |
| 20260503173527 | 54 | 289 | 4.0 | 14.0 | 0.00 | 0.00 | 0.00 | 35 | 1012.9 |
| 20260503173041 | 54 | 282 | 6.0 | 14.0 | 0.00 | 0.00 | 0.00 | 35 | 1012.9 |
| 20260503172526 | 54 | 292 | 6.0 | 14.0 | 0.00 | 0.00 | 0.00 | 36 | 1013.0 |
| 20260503172027 | 54 | 322 | 6.0 | 14.0 | 0.00 | 0.00 | 0.00 | 36 | 1012.9 |
| 20260503171536 | 54 | 279 | 6.0 | 15.0 | 0.00 | 0.00 | 0.00 | 35 | 1013.0 |
| 20260503171024 | 54 | 321 | 6.0 | 15.0 | 0.00 | 0.00 | 0.00 | 34 | 1013.0 |
| 20260503170524 | 54 | 314 | 7.0 | 15.0 | 0.00 | 0.00 | 0.00 | 36 | 1013.1 |
| 20260503150526 | 52 | 288 | 3.0 | 10.0 | 0.00 | 0.00 | 0.00 | 41 | 1013.3 |
| 20260503131027 | 48 | 325 | 4.0 | 14.0 | 0.00 | 0.00 | 0.00 | 51 | 1013.3 |
| 20260503130527 | 49 | 341 | 3.0 | 10.0 | 0.00 | 0.00 | 0.00 | 51 | 1013.3 |
| 20260503110526 | 46 | 315 | 2.0 | 11.0 | 0.00 | 0.00 | 0.00 | 54 | 1012.2 |
| 20260503081536 | 44 | 342 | 0.0 | 1.0 | 0.00 | 0.00 | 0.00 | 67 | 1010.2 |
| 20260503081025 | 44 | 0 | 0.0 | 3.0 | 0.00 | 0.00 | 0.00 | 67 | 1010.2 |
| 20260503080526 | 45 | 0 | 0.0 | 3.0 | 0.00 | 0.00 | 0.00 | 67 | 1010.1 |
| 20260503072525 | 46 | 304 | 0.0 | 4.0 | 0.00 | 0.00 | 0.00 | 64 | 1010.1 |
| 20260503072027 | 46 | 268 | 1.0 | 4.0 | 0.00 | 0.00 | 0.00 | 64 | 1010.2 |
| 20260503071541 | 46 | 307 | 0.0 | 4.0 | 0.00 | 0.00 | 0.00 | 64 | 1010.1 |
| 20260503071027 | 46 | 287 | 0.0 | 1.0 | 0.00 | 0.00 | 0.00 | 64 | 1010.1 |
| 20260503070528 | 46 | 279 | 0.0 | 1.0 | 0.00 | 0.00 | 0.00 | 63 | 1010.1 |
| 20260503055027 | 49 | 0 | 0.0 | 3.0 | 0.00 | 0.00 | 0.00 | 54 | 1010.3 |
| 20260503054539 | 49 | 340 | 0.0 | 6.0 | 0.00 | 0.00 | 0.00 | 53 | 1010.2 |
| 20260503054027 | 49 | 349 | 2.0 | 6.0 | 0.00 | 0.00 | 0.00 | 53 | 1010.3 |
| 20260503053527 | 49 | 338 | 1.0 | 5.0 | 0.00 | 0.00 | 0.00 | 53 | 1010.3 |
| 20260503053046 | 49 | 329 | 0.0 | 4.0 | 0.00 | 0.00 | 0.00 | 52 | 1010.3 |
| 20260503052526 | 50 | 342 | 1.0 | 4.0 | 0.00 | 0.00 | 0.00 | 52 | 1010.5 |
| 20260503052028 | 50 | 326 | 1.0 | 4.0 | 0.00 | 0.00 | 0.00 | 51 | 1010.5 |
| 20260503051545 | 50 | 331 | 1.0 | 5.0 | 0.00 | 0.00 | 0.00 | 51 | 1010.4 |
| 20260503051027 | 50 | 173 | 1.0 | 5.0 | 0.00 | 0.00 | 0.00 | 51 | 1010.7 |
| 20260503050526 | 50 | 317 | 1.0 | 6.0 | 0.00 | 0.00 | 0.00 | 51 | 1010.6 |
| 20260503050044 | 50 | 311 | 1.0 | 6.0 | 0.00 | 0.00 | 0.00 | 50 | 1010.6 |
| 20260503045526 | 50 | 337 | 2.0 | 7.0 | 0.00 | 0.00 | 0.00 | 51 | 1010.7 |
| 20260503045027 | 50 | 312 | 2.0 | 7.0 | 0.00 | 0.00 | 0.00 | 51 | 1010.7 |
| 20260503044558 | 49 | 48 | 0.0 | 2.0 | 0.00 | 0.00 | 0.00 | 51 | 1010.8 |
| 20260503044027 | 49 | 304 | 0.0 | 3.0 | 0.00 | 0.00 | 0.00 | 52 | 1011.0 |
| 20260503043527 | 50 | 0 | 0.0 | 3.0 | 0.00 | 0.00 | 0.00 | 51 | 1010.9 |
| 20260503043037 | 50 | 327 | 0.0 | 3.0 | 0.00 | 0.00 | 0.00 | 50 | 1010.9 |
| 20260503042527 | 50 | 320 | 1.0 | 3.0 | 0.00 | 0.00 | 0.00 | 50 | 1010.9 |
| 20260503042027 | 50 | 0 | 0.0 | 3.0 | 0.00 | 0.00 | 0.00 | 50 | 1011.0 |
| 20260503041607 | 50 | 321 | 0.0 | 2.0 | 0.00 | 0.00 | 0.00 | 51 | 1011.0 |
| 20260503041026 | 50 | 0 | 0.0 | 1.0 | 0.00 | 0.00 | 0.00 | 50 | 1011.0 |